When you browse on this site, cookies collect data to enhance your experience and personalize the content and advertising you see.
Visit our Privacy Policy to learn more. By continuing to use the site, you agree to this use of cookies and data.
  • In Schweiz
  • Länderverzeichnis
  • Für 7 Tage
  • Wassertemperatur
  • Satellitenkarten
  • Wetterkarte
  • Widgets
  • user-avatar
    Anmelden

    Stündliche Wetter Bridgetown

    Heute, 19 Juni, Mittwoch

    Zeit Temperatur Niederschläge Wind Luftdruck Luftfeuchtigkeit
    00:00 +29°C° 0 mm 11 m/S 761 mmHg 77%
    01:00 +29°C° 0 mm 10 m/S 761 mmHg 78%
    02:00 +29°C° 0 mm 10 m/S 761 mmHg 78%
    03:00 +29°C° 0 mm 10 m/S 761 mmHg 77%
    04:00 +29°C° 0 mm 10 m/S 761 mmHg 76%
    05:00 +29°C° 0 mm 10 m/S 761 mmHg 75%
    06:00 +29°C° 0.1 mm 10 m/S 761 mmHg 74%
    07:00 +29°C° 0.1 mm 10 m/S 761 mmHg 74%
    08:00 +31°C° 0.1 mm 10 m/S 762 mmHg 73%
    09:00 +31°C° 0.1 mm 10 m/S 762 mmHg 73%
    10:00 +31°C° 0.1 mm 10 m/S 762 mmHg 72%
    11:00 +32°C° 0.1 mm 10 m/S 762 mmHg 72%
    12:00 +32°C° 0.4 mm 10 m/S 762 mmHg 72%
    13:00 +31°C° 0.4 mm 9 m/S 762 mmHg 73%
    14:00 +31°C° 0.4 mm 9 m/S 761 mmHg 74%
    15:00 +31°C° 0.5 mm 9 m/S 761 mmHg 75%
    16:00 +31°C° 0.5 mm 9 m/S 761 mmHg 77%
    17:00 +31°C° 0.5 mm 9 m/S 761 mmHg 78%
    18:00 +29°C° 0.1 mm 9 m/S 761 mmHg 79%
    19:00 +29°C° 0.1 mm 9 m/S 761 mmHg 80%
    20:00 +29°C° 0.1 mm 9 m/S 762 mmHg 81%
    21:00 +29°C° 0 mm 9 m/S 762 mmHg 81%
    22:00 +29°C° 0 mm 10 m/S 762 mmHg 81%
    23:00 +29°C° 0 mm 10 m/S 762 mmHg 81%

    Morgen, 20 Juni, Donnerstag

    Zeit Temperatur Niederschläge Wind Luftdruck Luftfeuchtigkeit
    00:00 +29°C° 0 mm 10 m/S 762 mmHg 81%
    01:00 +29°C° 0 mm 10 m/S 761 mmHg 80%
    02:00 +29°C° 0 mm 10 m/S 761 mmHg 80%
    03:00 +29°C° 0 mm 10 m/S 761 mmHg 79%
    04:00 +29°C° 0 mm 9 m/S 761 mmHg 79%
    05:00 +29°C° 0 mm 9 m/S 761 mmHg 79%
    06:00 +29°C° 0 mm 9 m/S 762 mmHg 77%
    07:00 +29°C° 0 mm 9 m/S 762 mmHg 75%
    08:00 +31°C° 0 mm 10 m/S 763 mmHg 73%
    09:00 +31°C° 0 mm 9 m/S 763 mmHg 72%
    10:00 +31°C° 0 mm 9 m/S 763 mmHg 71%
    11:00 +31°C° 0 mm 9 m/S 763 mmHg 70%
    12:00 +32°C° 0 mm 9 m/S 763 mmHg 70%
    13:00 +32°C° 0 mm 9 m/S 763 mmHg 70%
    14:00 +32°C° 0 mm 9 m/S 762 mmHg 70%
    15:00 +31°C° 0 mm 9 m/S 762 mmHg 71%
    16:00 +31°C° 0 mm 9 m/S 762 mmHg 72%
    17:00 +31°C° 0 mm 9 m/S 762 mmHg 73%
    18:00 +31°C° 0 mm 9 m/S 762 mmHg 74%
    19:00 +29°C° 0 mm 8 m/S 763 mmHg 75%
    20:00 +29°C° 0 mm 8 m/S 763 mmHg 76%
    21:00 +29°C° 0 mm 9 m/S 763 mmHg 76%
    22:00 +29°C° 0 mm 9 m/S 764 mmHg 76%
    23:00 +29°C° 0 mm 9 m/S 764 mmHg 77%

    übermorgen, 21 Juni, Freitag

    Zeit Temperatur Niederschläge Wind Luftdruck Luftfeuchtigkeit
    00:00 +29°C° 0 mm 9 m/S 763 mmHg 76%
    01:00 +29°C° 0 mm 9 m/S 763 mmHg 76%
    02:00 +29°C° 0 mm 10 m/S 762 mmHg 75%
    03:00 +29°C° 0 mm 9 m/S 762 mmHg 76%
    04:00 +29°C° 0 mm 9 m/S 762 mmHg 76%
    05:00 +29°C° 0 mm 9 m/S 762 mmHg 76%
    06:00 +29°C° 0 mm 9 m/S 763 mmHg 75%
    07:00 +29°C° 0 mm 9 m/S 763 mmHg 74%
    08:00 +31°C° 0 mm 10 m/S 763 mmHg 73%
    09:00 +31°C° 0 mm 9 m/S 764 mmHg 72%
    10:00 +31°C° 0 mm 9 m/S 764 mmHg 71%
    11:00 +31°C° 0 mm 9 m/S 764 mmHg 70%
    12:00 +31°C° 0 mm 9 m/S 763 mmHg 71%
    13:00 +31°C° 0 mm 9 m/S 763 mmHg 72%
    14:00 +31°C° 0 mm 9 m/S 763 mmHg 73%
    15:00 +31°C° 0 mm 9 m/S 762 mmHg 73%
    16:00 +31°C° 0 mm 9 m/S 762 mmHg 73%
    17:00 +31°C° 0 mm 9 m/S 762 mmHg 73%
    18:00 +29°C° 0 mm 9 m/S 762 mmHg 75%
    19:00 +29°C° 0 mm 9 m/S 763 mmHg 76%
    20:00 +29°C° 0 mm 9 m/S 763 mmHg 77%
    21:00 +29°C° 0 mm 8 m/S 763 mmHg 76%
    22:00 +29°C° 0 mm 9 m/S 763 mmHg 76%
    23:00 +29°C° 0 mm 9 m/S 764 mmHg 76%

    22 Juni, Samstag

    Zeit Temperatur Niederschläge Wind Luftdruck Luftfeuchtigkeit
    00:00 +29°C° 0.1 mm 8 m/S 763 mmHg 76%
    01:00 +29°C° 0.1 mm 8 m/S 763 mmHg 75%
    02:00 +29°C° 0.1 mm 8 m/S 762 mmHg 75%
    03:00 +29°C° 0.1 mm 8 m/S 762 mmHg 77%
    04:00 +29°C° 0.1 mm 8 m/S 762 mmHg 78%
    05:00 +29°C° 0.1 mm 8 m/S 762 mmHg 80%
    06:00 +29°C° 0.1 mm 8 m/S 762 mmHg 77%
    07:00 +29°C° 0.1 mm 8 m/S 763 mmHg 74%
    08:00 +31°C° 0.1 mm 8 m/S 763 mmHg 72%
    09:00 +31°C° 0.1 mm 8 m/S 763 mmHg 71%
    10:00 +31°C° 0.1 mm 9 m/S 763 mmHg 70%
    11:00 +32°C° 0.1 mm 9 m/S 763 mmHg 69%
    12:00 +32°C° 0 mm 9 m/S 763 mmHg 71%
    13:00 +31°C° 0 mm 8 m/S 762 mmHg 72%
    14:00 +31°C° 0 mm 8 m/S 761 mmHg 74%
    15:00 +31°C° 0.1 mm 8 m/S 761 mmHg 74%
    16:00 +31°C° 0.1 mm 9 m/S 761 mmHg 74%
    17:00 +31°C° 0.1 mm 9 m/S 761 mmHg 74%
    18:00 +31°C° 0.1 mm 9 m/S 761 mmHg 75%
    19:00 +31°C° 0.1 mm 9 m/S 761 mmHg 76%
    20:00 +29°C° 0.1 mm 9 m/S 762 mmHg 77%
    21:00 +29°C° 0.1 mm 9 m/S 762 mmHg 78%
    22:00 +29°C° 0.1 mm 9 m/S 762 mmHg 79%
    23:00 +29°C° 0.1 mm 9 m/S 763 mmHg 79%

    23 Juni, Sonntag

    Zeit Temperatur Niederschläge Wind Luftdruck Luftfeuchtigkeit
    00:00 +29°C° 0.2 mm 8 m/S 762 mmHg 80%
    01:00 +29°C° 0.2 mm 8 m/S 762 mmHg 81%
    02:00 +29°C° 0.2 mm 8 m/S 761 mmHg 82%
    03:00 +29°C° 0.6 mm 8 m/S 761 mmHg 82%
    04:00 +29°C° 0.6 mm 8 m/S 761 mmHg 82%
    05:00 +29°C° 0.6 mm 8 m/S 761 mmHg 82%
    06:00 +29°C° 1.6 mm 8 m/S 761 mmHg 81%
    07:00 +29°C° 1.6 mm 8 m/S 762 mmHg 80%
    08:00 +29°C° 1.6 mm 9 m/S 762 mmHg 79%
    09:00 +31°C° 0.8 mm 8 m/S 762 mmHg 78%
    10:00 +31°C° 0.8 mm 8 m/S 762 mmHg 77%
    11:00 +32°C° 0.8 mm 8 m/S 762 mmHg 75%
    12:00 +30°C° 1.2 mm 7 m/S 762 mmHg 75%
    13:00 +30°C° 1.2 mm 7 m/S 761 mmHg 76%
    14:00 +30°C° 1.2 mm 7 m/S 761 mmHg 76%
    15:00 +30°C° 0.3 mm 6 m/S 761 mmHg 76%
    16:00 +30°C° 0.3 mm 6 m/S 760 mmHg 77%
    17:00 +30°C° 0.3 mm 6 m/S 760 mmHg 77%
    18:00 +30°C° 0 mm 7 m/S 760 mmHg 78%
    19:00 +29°C° 0 mm 7 m/S 761 mmHg 79%
    20:00 +29°C° 0 mm 8 m/S 761 mmHg 80%
    21:00 +29°C° 0 mm 8 m/S 761 mmHg 80%
    22:00 +29°C° 0 mm 8 m/S 761 mmHg 81%
    23:00 +29°C° 0 mm 9 m/S 762 mmHg 81%

    24 Juni, Montag

    Zeit Temperatur Niederschläge Wind Luftdruck Luftfeuchtigkeit
    00:00 +29°C° 0 mm 9 m/S 761 mmHg 81%
    01:00 +29°C° 0 mm 9 m/S 761 mmHg 80%
    02:00 +29°C° 0 mm 9 m/S 760 mmHg 80%
    03:00 +29°C° 0 mm 9 m/S 760 mmHg 80%
    04:00 +28°C° 0 mm 9 m/S 760 mmHg 80%
    05:00 +28°C° 0 mm 9 m/S 760 mmHg 79%
    06:00 +29°C° 0 mm 9 m/S 760 mmHg 78%
    07:00 +29°C° 0 mm 9 m/S 761 mmHg 76%
    08:00 +29°C° 0 mm 9 m/S 761 mmHg 74%
    09:00 +31°C° 0 mm 9 m/S 761 mmHg 73%
    10:00 +31°C° 0 mm 9 m/S 761 mmHg 71%
    11:00 +32°C° 0 mm 9 m/S 761 mmHg 70%
    12:00 +31°C° 0 mm 9 m/S 761 mmHg 70%
    13:00 +31°C° 0 mm 9 m/S 760 mmHg 69%
    14:00 +31°C° 0 mm 9 m/S 760 mmHg 69%
    15:00 +31°C° 0 mm 9 m/S 760 mmHg 70%
    16:00 +31°C° 0 mm 9 m/S 760 mmHg 72%
    17:00 +31°C° 0 mm 9 m/S 759 mmHg 73%
    18:00 +29°C° 0 mm 9 m/S 760 mmHg 74%
    19:00 +29°C° 0 mm 9 m/S 760 mmHg 76%
    20:00 +29°C° 0 mm 9 m/S 760 mmHg 77%
    21:00 +29°C° 0 mm 9 m/S 761 mmHg 77%
    22:00 +29°C° 0 mm 9 m/S 761 mmHg 77%
    23:00 +29°C° 0 mm 9 m/S 761 mmHg 77%
    Mehr zeigen